Tracking 35275 objects as of 9-Sep-2026
HD Live streaming from Space Station
objects crossing your sky now

STARLINK-34263

Track STARLINK-34263 now!
10-day predictions
STARLINK-34263 is classified as:


NORAD ID: 64164
Int'l Code: 2025-112U
Launch date: May 27, 2025
Source: United States (US)
Launch site: AIR FORCE WESTERN TEST RANGE (AFWTR)
Your satellite tracking list
Your tracking list is empty




NASA's NSSDC Master Catalog

Two Line Element Set (TLE):
1 64164U 25112U   26251.86011881  .00007056  00000-0  22075-3 0  9998
2 64164  97.2863 299.0883 0002254  76.6174 283.5320 15.33434874 70968
Source of the keplerian elements: AFSPC